Simultaneous Nadir Overpasses (SNOs) Predictions

Prediction of SNOs between AQUA and GOES-15 Satellite Orbit:

Table of predicted SNOs for the next 14.0 days since TLE Epoch: 7/11/2014
Index Date Time (AQUA) AQUA Lat,Lon GOES-15 Lat,Lon Distance(km) Time Diff (sec)
1 07/12/2014 22:35:26 0.19,-134.95 0.15,-135.19 27.04 80
2 07/14/2014 22:23:13 0.81,-131.98 0.15,-135.13 357.06 80
3 07/15/2014 10:44:28 0.28,-137.14 -0.16,-135.10 232.14 80
4 07/17/2014 10:32:15 -0.36,-134.18 -0.16,-135.04 97.62 80
5 07/17/2014 22:53:39 -0.73,-139.37 0.18,-135.03 493.94 80
6 07/19/2014 10:20:01 -0.96,-131.21 -0.16,-134.97 427.03 80
7 07/19/2014 22:41:25 -0.12,-136.40 0.18,-134.95 164.58 80
8 07/21/2014 22:29:11 0.51,-133.44 0.18,-134.88 164.34 80
9 07/22/2014 10:50:25 0.57,-138.60 -0.19,-134.85 425.03 80
10 07/23/2014 22:16:56 1.10,-130.46 0.18,-134.80 492.89 80
11 07/24/2014 10:38:11 -0.02,-135.62 -0.20,-134.77 96.55 80




NCC Satellite Simultaneous Nadir Overpasses (SNOs) Prediction Service
